Regional Weather Roundup
Issued by NWS Sterling, VA

Home | Current Version | Previous Version | Text Only | Print | Product List | Glossary Off
Versions: 1 2 3 4 5 6 7 8 9 10 11 12 13 14 15 16 17 18 19 20 21 22 23 24 25 26 27 28 29 30 31 32 33 34 35 36 37 38 39 40 41 42 43 44 45 46 47 48 49 50

000
ASUS41 KLWX 271110
RWRLWX

REGIONAL WEATHER ROUNDUP
NATIONAL WEATHER SERVICE BALTIMORE MD/WASHINGTON DC
700 AM EDT FRI MAR 27 2015

Note: "FAIR" indicates few or no clouds below 12,000 feet
with no significant weather and/or obstructions to visibility.
 TC=TEMPERATURE CELSIUS

 * =Non NWS site. Station does not report precipitation (e.g. rain,
    snow, etc.), thunder, or fog.

DCZ001-MDZ009-015-VAZ040>042-051-053>054-271200-
WASHINGTON METRO

CITY           SKY/WX    TMP DP  RH WIND       PRES   REMARKS
WASHINGTON NAT LGT RAIN  44  38  79 NE7       29.80F
DULLES         LGT RAIN  43  39  87 N9        29.79S
ANDREWS AFB    LGT RAIN  40  39  95 N8        29.78S
FT BELVOIR     CLOUDY    41  38  89 N2        29.80S
QUANTICO       RAIN      43  38  82 NE10      29.81R
COLLEGE PARK*  CLOUDY    41  39  93 N3        29.79S
LEESBURG*      LGT RAIN  43  41  93 N8G17     29.81S
MANASSAS*      CLOUDY    43  43 100 N5        29.80S
GAITHERSBURG*  CLOUDY    41  37  87 CALM      29.82S

$$

MDZ006>007-011-014-271200-
BALTIMORE METRO

CITY           SKY/WX    TMP DP  RH WIND       PRES   REMARKS
BWI AIRPORT    CLOUDY    40  37  89 CALM      29.79F
MD SCIENCE CTR   N/A     42  39  89 MISG      29.79F
MARTIN STATE   DRIZZLE   39  39 100 CALM      29.80F
ANNAPOLIS      LGT RAIN  41  37  86 N9        29.78F

$$

MDZ012-015-019>023-271200-
MARYLAND EASTERN SHORE

CITY           SKY/WX    TMP DP  RH WIND       PRES   REMARKS
OCEAN CITY     CLOUDY    45  40  82 N14G23    29.74R
SALISBURY      CLOUDY    44  40  85 N14G26    29.75R
BAY BRIDGE AP* RAIN      39  37  93 N12G18    29.79F
CAMBRIDGE*     MOCLDY    45  39  81 N14G24    29.77R
EASTON*        MOCLDY    45  45 100 N14       29.81S

$$

MDZ017>025-271200-
SOUTHERN MARYLAND

CITY           SKY/WX    TMP DP  RH WIND       PRES   REMARKS
PATUXENT RIVER LGT RAIN  44  39  82 N14G24    29.76R
ST INIGOES     CLOUDY    45  38  76 N9G18     29.77R
LEONARDTOWN*   CLOUDY    43  37  81 N5G18     29.77F

$$

MDZ003>005-271200-
NORTH CENTRAL MARYLAND

CITY           SKY/WX    TMP DP  RH WIND       PRES   REMARKS
FREDERICK*     LGT RAIN N/A N/A N/A N6        29.82S
HAGERSTOWN APT CLOUDY    41  33  73 NW5       29.80S
WESTMINSTER*   LGT RAIN  39  37  93 N5        29.78R

$$

MDZ501>502-271200-
WESTERN MARYLAND

CITY           SKY/WX    TMP DP  RH WIND       PRES   REMARKS
OAKLAND*       CLOUDY    30 N/A N/A NW6       29.77R HAZE
CUMBERLAND*    CLOUDY    41  28  60 N10       29.87R

$$

VAZ025>031-271200-
SHENANDOAH VALLEY

CITY           SKY/WX    TMP DP  RH WIND       PRES   REMARKS
WINCHESTER*    CLOUDY    41  34  75 NW5       29.81R
FRONT ROYAL*   CLOUDY    41  37  87 N3        29.80R
LURAY*         DRIZZLE   43  43 100 N3        29.79R
NEW MARKET*    CLOUDY    42  38  86 N7        29.79R
STAUNTON*      LGT RAIN  42  39  91 N3        29.79S
WAYNESBORO*    CLOUDY    40  39  97 CALM      29.77R

$$

WVZ021-048>050-054>055-271200-
EASTERN WEST VIRGINIA PANHANDLE

CITY           SKY/WX    TMP DP  RH WIND       PRES   REMARKS
MARTINSBURG    CLOUDY    42  33  70 NW10      29.82R
PETERSBURG*    CLOUDY    41  30  64 NW5       29.83S

$$

VAZ036>039-050-271200-
CENTRAL FOOTHILLS

CITY           SKY/WX    TMP DP  RH WIND       PRES   REMARKS
CHARLOTTESVILL RAIN      42  41  96 CALM      29.78R FOG
CULPEPER*      RAIN      43  43 100 CALM      29.80S
ORANGE*        RAIN      43  41  93 N3        29.80R
GORDONSVILLE*  CLOUDY    41  40  94 NE5       29.78R
WARRENTON*     RAIN      43  43 100 N3        29.79S

$$

VAZ055>057-271200-
NORTH AND CENTRAL PIEDMONT

CITY           SKY/WX    TMP DP  RH WIND       PRES   REMARKS
FREDERICKSBRG* DRIZZLE   43  43  99 N7        29.79S
STAFFORD*      RAIN      40  32  71 N5        29.84R

$$

NCZ024-NYZ072-PAZ021-071-VAZ022-071-271200-
OTHER REGIONAL OBSERVATIONS

CITY           SKY/WX    TMP DP  RH WIND       PRES   REMARKS
NEW YORK CITY  LGT RAIN  39  36  89 VRB3      29.79R
PHILADELPHIA   LGT RAIN  39  35  86 N8        29.80S
PITTSBURGH     CLOUDY    33  29  85 NW7       29.84R
ROANOKE        LGT RAIN  43  37  79 N6        29.78F
RICHMOND       LGT RAIN  47  39  74 N18G28    29.76R
RALEIGH        CLOUDY    56  49  77 N12G20    29.70R

$$

ANZ530>537-271200-
MARINE OBSERVATIONS

STATION/POSITION TIME  TEMP    WIND        PRES
                       AIR SEA DIR/SP/G
                 (UTC) (F)     (DEG/KT/KT) (MB)
THOMAS PT LIGHT  1100                        N/A
BALT KEY BRIDGE  1000   40     330/  9/ 10 1009.2F
COVE POINT       1000   42      20/ 21/ 25 1007.5F
LEWISETTA        1000   46 42              1007.3S
SOLOMONS ISLAND  1000      44                N/A
PINEY POINT      1000          360/ 17/ 22   N/A

$$




USA.gov is the U.S. government's official web portal to all federal, state and local government web resources and services.